FW8927 Weather Reports


Display with metric or nautical units.
time (UTC)temp
F
wind
direction
speed
MPH
gust
MPH
rain 1hr
in
rain 24hr
in
rain mn
in
humidity
%
barometer
mb
20260508104550 35 0 0.0 0.0 0.00 0.00 0.00 95 1013.6
20260508103057 35 0 0.0 0.0 0.00 0.00 0.00 95 1013.7
20260508101556 35 0 0.0 0.0 0.00 0.00 0.00 96 1013.6
20260508100129 36 0 0.0 0.0 0.00 0.00 0.00 96 1013.5
20260508094559 35 0 0.0 1.0 0.00 0.00 0.00 96 1013.4
20260508093101 35 0 0.0 1.0 0.00 0.00 0.00 95 1013.4
20260508091610 35 0 0.0 0.0 0.00 0.00 0.00 95 1013.5
20260508090057 35 0 0.0 0.0 0.00 0.00 0.00 95 1013.5
20260508084554 35 0 0.0 0.0 0.00 0.00 0.00 95 1013.3
20260508083053 35 0 0.0 0.0 0.00 0.00 0.00 95 1013.2
20260508081611 35 0 0.0 0.0 0.00 0.00 0.00 94 1013.3
20260508080055 36 0 0.0 0.0 0.00 0.00 0.00 94 1013.1
20260508074559 36 0 0.0 0.0 0.00 0.00 0.00 93 1013.0
20260508073053 37 0 0.0 0.0 0.00 0.00 0.00 93 1013.0
20260508071556 37 0 0.0 0.0 0.00 0.00 0.00 93 1013.0
20260508070059 37 0 0.0 3.0 0.00 0.00 0.00 93 1013.1
20260508064555 37 0 0.0 0.0 0.00 0.00 0.00 92 1013.2
20260508063056 38 0 0.0 0.0 0.00 0.00 0.00 92 1013.4
20260508061604 38 0 0.0 0.0 0.00 0.00 0.00 91 1013.3
20260508060106 39 0 0.0 0.0 0.00 0.00 0.00 91 1013.4
20260508054638 39 0 0.0 0.0 0.00 0.00 0.00 90 1013.5
20260508053057 39 0 0.0 0.0 0.00 0.00 0.00 89 1013.5
20260508051554 40 0 0.0 0.0 0.00 0.00 0.00 88 1013.4
20260508050053 40 0 0.0 0.0 0.00 0.00 0.00 88 1013.4
20260508044554 40 0 0.0 0.0 0.00 0.00 0.00 87 1013.2
20260508043058 41 0 0.0 0.0 0.00 0.00 0.00 89 1013.3
20260508041554 42 0 0.0 0.0 0.00 0.00 0.00 88 1013.4
20260508040056 42 0 0.0 0.0 0.00 0.00 0.00 86 1013.3
20260508034553 43 0 0.0 0.0 0.00 0.00 0.00 85 1013.2
20260508033054 44 0 0.0 0.0 0.00 0.00 0.00 83 1013.3
20260508031556 45 0 0.0 0.0 0.00 0.00 0.00 81 1013.4
20260508030058 46 0 0.0 0.0 0.00 0.00 0.00 78 1013.3
20260508024605 47 0 0.0 0.0 0.00 0.00 0.00 73 1013.3
20260508023052 47 0 0.0 0.0 0.00 0.00 0.00 69 1013.2
20260508021602 48 0 0.0 1.0 0.00 0.00 0.00 68 1013.0
20260508020103 48 0 0.0 2.0 0.00 0.00 0.00 69 1012.7
20260508014606 48 36 0.0 2.0 0.00 0.00 0.00 69 1012.4
20260508013056 49 322 0.0 2.0 0.00 0.00 0.00 69 1012.3
20260508011606 50 315 0.0 2.0 0.00 0.00 0.00 61 1012.1
20260508010053 51 315 0.0 2.0 0.00 0.00 0.00 56 1011.8
20260508004553 53 311 0.0 3.0 0.00 0.00 0.00 51 1011.8
20260508003058 54 0 0.0 2.0 0.00 0.00 0.00 50 1011.5
20260508001553 55 0 0.0 3.0 0.00 0.00 0.00 48 1011.4
20260508000052 56 0 1.0 4.0 0.00 0.00 0.00 45 1011.4
20260507234553 57 344 1.0 9.0 0.00 0.00 0.00 44 1011.4
20260507233053 58 350 2.0 8.0 0.00 0.00 0.00 42 1011.3
20260507231554 59 0 2.0 9.0 0.00 0.00 0.00 41 1011.1
20260507230056 60 291 2.0 6.0 0.00 0.00 0.00 41 1011.2
20260507224553 60 276 3.0 10.0 0.00 0.00 0.00 42 1011.2
20260507223055 60 288 3.0 13.0 0.00 0.00 0.00 43 1011.2
20260507221555 61 72 1.0 4.0 0.00 0.00 0.00 42 1011.3
20260507220055 60 293 4.0 10.0 0.00 0.00 0.00 40 1011.1
20260507214554 61 277 2.0 11.0 0.00 0.00 0.00 43 1011.0
20260507213052 61 0 5.0 12.0 0.00 0.00 0.00 42 1010.9
20260507211556 61 319 2.0 10.0 0.00 0.00 0.00 45 1010.9
20260507210059 61 306 3.0 14.0 0.00 0.00 0.00 45 1010.7
20260507204556 61 320 5.0 13.0 0.00 0.00 0.00 44 1010.5
20260507203058 60 317 5.0 12.0 0.00 0.00 0.00 46 1010.7
20260507201557 60 279 8.0 15.0 0.00 0.00 0.00 44 1010.7
20260507200056 61 250 3.0 15.0 0.00 0.00 0.00 47 1010.5
20260507194556 61 261 5.0 11.0 0.00 0.00 0.00 45 1010.8
20260507193052 60 271 6.0 13.0 0.00 0.00 0.00 45 1010.9
20260507191553 60 302 7.0 18.0 0.00 0.00 0.00 47 1010.9
20260507190054 60 262 4.0 11.0 0.00 0.00 0.00 47 1010.9
20260507184555 59 338 4.0 10.0 0.00 0.00 0.00 50 1011.1
20260507183055 60 222 3.0 11.0 0.00 0.00 0.00 51 1011.0
20260507181551 60 170 4.0 12.0 0.00 0.00 0.00 50 1011.1
20260507180059 59 186 4.0 8.0 0.00 0.00 0.00 54 1011.5
20260507174605 60 60 2.0 14.0 0.00 0.00 0.00 58 1011.5
20260507173052 59 284 5.0 14.0 0.00 0.00 0.00 56 1011.9
20260507171611 59 259 2.0 12.0 0.00 0.00 0.00 54 1011.8
20260507170105 59 44 3.0 11.0 0.00 0.00 0.00 53 1011.6
20260507164603 58 350 5.0 10.0 0.00 0.00 0.00 57 1011.8
20260507163101 57 162 1.0 8.0 0.00 0.00 0.00 59 1012.0
20260507161601 58 0 2.0 7.0 0.00 0.00 0.00 58 1011.9
20260507160056 57 86 3.0 9.0 0.00 0.00 0.00 64 1012.0
20260507154557 57 198 4.0 10.0 0.00 0.00 0.00 62 1012.1
20260507153104 56 216 1.0 6.0 0.00 0.00 0.00 62 1012.0
20260507151554 56 0 2.0 9.0 0.00 0.00 0.00 64 1011.8
20260507150052 55 134 2.0 10.0 0.00 0.00 0.00 66 1011.9
20260507144555 56 49 1.0 4.0 0.00 0.00 0.00 64 1011.8
20260507143056 55 118 0.0 5.0 0.00 0.00 0.00 72 1011.7
20260507141552 54 0 1.0 4.0 0.00 0.00 0.00 71 1011.9
20260507140103 54 155 1.0 3.0 0.00 0.00 0.00 71 1011.9
20260507134600 53 55 2.0 5.0 0.00 0.00 0.00 75 1012.1
20260507133113 52 67 0.0 4.0 0.00 0.00 0.00 77 1012.0
20260507131558 52 101 0.0 4.0 0.00 0.00 0.00 81 1012.1
20260507130112 51 98 0.0 4.0 0.00 0.00 0.00 86 1012.2
20260507124631 50 0 0.0 0.0 0.00 0.00 0.00 94 1012.4
20260507123110 50 0 0.0 2.0 0.00 0.00 0.00 94 1012.4
20260507121602 49 0 0.0 0.0 0.00 0.00 0.00 95 1012.3
20260507120058 49 0 0.0 0.0 0.00 0.00 0.00 95 1012.1
20260507114612 49 0 0.0 0.0 0.00 0.00 0.00 95 1012.0
20260507113059 48 0 0.0 0.0 0.00 0.00 0.00 95 1012.1
20260507111602 48 0 0.0 0.0 0.00 0.00 0.00 95 1011.9
20260507110054 48 0 0.0 0.0 0.00 0.00 0.00 94 1011.8